[[{"header":{"parameterUnit":"m.s-1","parameterCategory":1,"la1":30.2991,"la2":30.254,"lo1":-89.0895,"lo2":-89.0444,"dy":0.0017,"dx":0.0017,"nx":28,"ny":28,"refTime":"2025-09-17T03:00:00:Z","depth":0,"parameterNumber":2,"parameterNumberName":"U-component_of_WINDS"},"data":[0,0,0,0,0,0,0,0,0,0,0,0,0,0,0,0,0,0,0,0,0,0,0,0,0,0,0,0,0,0,0,0,0,0,0,0,0,0,0,0,0,0,0,0,0,0,0,0,0,0,0,0,0,0,0,0,0,0,0.5045,0.5045,0,0.5072,0.5072,0.5072,0.5098,0.5098,0.5098,0.5099,0.5124,0.5125,0.5125,0,0,0,0,0,0,0,0,0,0,0,0,0,0.5013,0.5014,0.5045,0.5045,0.5046,0.5072,0.5072,0.5072,0.5098,0.5098,0.5099,0.5099,0.5124,0.5125,0.5125,0,0,0,0,0,0,0,0,0,0,0,0,0,0.5032,0.5014,0.5045,0.5061,0.5063,0.5072,0.5072,0.5073,0.5098,0.5098,0.5099,0.5099,0.5124,0.5125,0.5125,0.5119,0,0,0.5127,0.5127,0,0,0,0,0,0,0,0,0.5031,0.5033,0.5059,0.506,0.5062,0.5082,0.507,0.5088,0.5098,0.5085,0.5099,0.5099,0.511,0.5111,0.5115,0.512,0.5121,0.5127,0.5127,0.5127,0.5128,0,0,0,0,0,0,0,0.503,0.5032,0.5056,0.5059,0.5061,0.5067,0.507,0.5074,0.5094,0.5086,0.5088,0.5091,0.5111,0.5115,0.5116,0.5122,0.5127,0.5127,0.5128,0.5128,0.5121,0.512,0,0,0,0,0,0,0.5026,0.5031,0.5055,0.5056,0.5048,0.5067,0.507,0.5075,0.5094,0.5097,0.509,0.5092,0.5114,0.5115,0.5117,0.511,0.5127,0.5128,0.5128,0.5121,0.512,0.512,0,0,0,0,0,0,0.5025,0.5028,0.5054,0.5044,0.5048,0.5067,0.5072,0.5075,0.5079,0.5097,0.5101,0.5091,0.5114,0.5116,0.5118,0.5111,0.5128,0.5129,0.5122,0.5121,0.512,0.5096,0,0,0,0,0,0,0.5024,0.5028,0.5026,0.5044,0.5048,0.5055,0.5072,0.5076,0.5081,0.5083,0.5099,0.5102,0.5115,0.5117,0.5118,0.5112,0.5129,0.5122,0.5121,0.512,0.5097,0.5094,0.5091,0,0,0,0,0,0.5023,0.5018,0.5026,0.5029,0.5047,0.5054,0.5057,0.5072,0.508,0.5078,0.5089,0.5101,0.5112,0.5117,0.5119,0.5113,0.5123,0.5122,0.512,0.5098,0.5095,0.5092,0,0,0,0,0,0,0.4999,0.5021,0.503,0.5031,0.504,0.5059,0.5057,0.5068,0.5075,0.5077,0.5095,0.5098,0.5097,0.5105,0.5111,0.5107,0.5119,0.5118,0.5101,0.5098,0.5095,0.5093,0.513,0,0,0,0,0,0.4993,0.4998,0.5017,0.5016,0.502,0.5038,0.5041,0.5052,0.5063,0.5067,0.5079,0.5088,0.5093,0.5096,0.5102,0.5099,0.5102,0.5095,0.5092,0.509,0.5088,0.5086,0.5082,0.5116,0.5116,0.5116,0,0,0.4982,0.4995,0.4997,0.5011,0.502,0.5024,0.5041,0.5044,0.5047,0.5068,0.5069,0.5078,0.509,0.5088,0.5088,0.5095,0.508,0.5088,0.5086,0.5086,0.5084,0.5081,0.5078,0.5115,0.5115,0.5115,0,0,0.4964,0.4975,0.4974,0.4983,0.4996,0.5007,0.5007,0.5024,0.503,0.5033,0.5048,0.505,0.506,0.5067,0.5071,0.5054,0.5065,0.5056,0.5041,0.5038,0.5035,0.5033,0.5025,0.5022,0.5055,0.5055,0.5055,0,0.4949,0.4956,0.4973,0.4975,0.498,0.4999,0.4998,0.5005,0.5019,0.5022,0.5029,0.504,0.5049,0.5049,0.5045,0.5048,0.5047,0.5054,0.5034,0.5032,0.503,0.5023,0.502,0.5053,0.5053,0.5054,0.5054,0,0.4935,0.4939,0.4937,0.495,0.4955,0.4956,0.4972,0.4975,0.4985,0.4995,0.4996,0.5008,0.5016,0.5017,0.5027,0.5017,0.5021,0.5031,0.5043,0.5025,0.5019,0.5016,0.5051,0.5052,0.5052,0.5053,0,0,0.4902,0.4924,0.4923,0.4929,0.4944,0.4947,0.4948,0.4956,0.4957,0.4966,0.4966,0.4973,0.4982,0.4988,0.4998,0.4996,0.498,0.5006,0.5007,0.5,0.4968,0.4959,0.4956,0.4987,0.4987,0.4987,0.4967,0,0.4886,0.4889,0.4903,0.4901,0.4904,0.4922,0.4922,0.4931,0.4941,0.4944,0.4954,0.4958,0.497,0.4973,0.4972,0.4982,0.4973,0.4984,0.4986,0.4986,0.4981,0.4953,0.4944,0.4925,0.4964,0.4964,0.4964,0,0.4867,0.4874,0.4872,0.4887,0.4888,0.4889,0.4896,0.49,0.491,0.4916,0.4922,0.4934,0.4934,0.4947,0.4947,0.4953,0.4955,0.496,0.496,0.496,0.4973,0.4951,0.4919,0.4916,0.496,0.4961,0.4961,0,0.4841,0.4851,0.4851,0.4855,0.4872,0.4871,0.4878,0.4889,0.4892,0.4898,0.49,0.4907,0.491,0.4914,0.4927,0.4936,0.4925,0.4939,0.493,0.4929,0.4926,0.4926,0.4893,0.4929,0.4929,0.4929,0.493,0,0.482,0.4818,0.4839,0.4839,0.4836,0.4853,0.485,0.4858,0.4867,0.4868,0.4884,0.4884,0.4902,0.4904,0.4915,0.4912,0.4914,0.4918,0.4921,0.4916,0.4915,0.4917,0.4918,0.4929,0.4929,0.4929,0.4929,0,0.4791,0.4805,0.4806,0.4821,0.4825,0.4823,0.4836,0.4835,0.4845,0.4846,0.4847,0.4863,0.4866,0.4879,0.4886,0.4893,0.4886,0.4892,0.4882,0.4884,0.4873,0.4873,0.4839,0.4834,0.4875,0.4874,0.4874,0,0.4776,0.4775,0.479,0.4792,0.4798,0.4801,0.4804,0.482,0.4823,0.4833,0.4831,0.4835,0.484,0.4843,0.4855,0.4859,0.4865,0.4852,0.4865,0.486,0.4862,0.4862,0.4861,0.4849,0.4848,0.4848,0.4848,0,0.4748,0.4755,0.4759,0.4765,0.4769,0.4774,0.4781,0.4782,0.4799,0.4801,0.4804,0.4807,0.4814,0.4817,0.4823,0.483,0.4841,0.4844,0.4841,0.4836,0.483,0.4831,0.4873,0.4844,0.4844,0.4845,0.4845,0.4845,0.4724,0.4723,0.4733,0.4737,0.4744,0.4749,0.4749,0.4759,0.4762,0.4768,0.4778,0.4779,0.4788,0.4797,0.4802,0.4803,0.481,0.4807,0.4806,0.4805,0.4802,0.4831,0.4805,0.4805,0.4805,0.4805,0.4805,0,0.4695,0.4703,0.4706,0.4714,0.4717,0.4728,0.4736,0.4737,0.4738,0.4745,0.4749,0.4752,0.4755,0.4766,0.477,0.4769,0.4774,0.4769,0.4768,0.4769,0.4796,0.4797,0.4765,0.4765,0.4765,0.4765,0.4765,0.4765,0.4681,0.4679,0.4686,0.4687,0.4695,0.4696,0.4699,0.4704,0.471,0.4712,0.4715,0.4722,0.4731,0.4735,0.4738,0.4741,0.4741,0.4735,0.4739,0.4764,0.4768,0.4771,0.4772,0.4735,0.4735,0.4712,0.4712,0.4712]},{"header":{"parameterUnit":"m.s-1","parameterCategory":1,"la1":30.2991,"la2":30.254,"lo1":-89.0895,"lo2":-89.0444,"dy":0.0017,"dx":0.0017,"nx":28,"ny":28,"refTime":"2025-09-17T03:00:00:Z","depth":0,"parameterNumber":3,"parameterNumberName":"V-component_of_WINDS"},"data":[0,0,0,0,0,0,0,0,0,0,0,0,0,0,0,0,0,0,0,0,0,0,0,0,0,0,0,0,0,0,0,0,0,0,0,0,0,0,0,0,0,0,0,0,0,0,0,0,0,0,0,0,0,0,0,0,0,0,3.8539,3.8539,0,3.854,3.854,3.854,3.8487,3.8486,3.8484,3.8483,3.8484,3.8485,3.8486,0,0,0,0,0,0,0,0,0,0,0,0,0,3.8491,3.8492,3.8539,3.8539,3.8539,3.854,3.854,3.854,3.8487,3.8486,3.8484,3.8482,3.8483,3.8485,3.8487,0,0,0,0,0,0,0,0,0,0,0,0,0,3.8504,3.8492,3.8539,3.8513,3.8511,3.854,3.854,3.854,3.8488,3.8486,3.8484,3.8482,3.8483,3.8485,3.8487,3.8541,0,0,3.8493,3.8494,0,0,0,0,0,0,0,0,3.8503,3.8506,3.8517,3.8515,3.8512,3.8511,3.8523,3.854,3.8488,3.8496,3.8483,3.8481,3.8495,3.8495,3.85,3.8541,3.8541,3.8493,3.8494,3.8495,3.8496,0,0,0,0,0,0,0,3.8502,3.8505,3.8539,3.8517,3.8514,3.8501,3.85,3.8526,3.8507,3.8496,3.8492,3.8493,3.8493,3.8498,3.85,3.8541,3.8493,3.8495,3.8496,3.8497,3.8623,3.8625,0,0,0,0,0,0,3.8505,3.8505,3.8539,3.8539,3.8502,3.8503,3.8503,3.8514,3.8507,3.8504,3.8494,3.849,3.8496,3.8498,3.85,3.856,3.8495,3.8497,3.8498,3.8621,3.8623,3.8626,0,0,0,0,0,0,3.8504,3.8509,3.8539,3.8521,3.8524,3.8506,3.8519,3.8515,3.852,3.8506,3.8502,3.8503,3.8495,3.8497,3.853,3.8559,3.8498,3.85,3.8618,3.8622,3.8625,3.8683,0,0,0,0,0,0,3.8503,3.8509,3.8529,3.8522,3.8525,3.857,3.8521,3.8516,3.8524,3.8518,3.8513,3.8511,3.8493,3.8528,3.8532,3.8561,3.8501,3.8615,3.862,3.8624,3.8678,3.8688,3.8696,0,0,0,0,0,3.8502,3.8546,3.8531,3.8535,3.855,3.8572,3.8574,3.8553,3.8526,3.8546,3.8537,3.8511,3.8556,3.8532,3.8536,3.8566,3.8614,3.8619,3.8623,3.8674,3.8686,3.8695,0,0,0,0,0,0,3.8558,3.8545,3.8527,3.8571,3.8573,3.8563,3.8588,3.8566,3.8575,3.857,3.8543,3.8543,3.858,3.8577,3.855,3.8617,3.858,3.8586,3.8617,3.8628,3.8637,3.8635,3.8503,0,0,0,0,0,3.8575,3.8594,3.8582,3.8621,3.8623,3.8606,3.8614,3.8598,3.8599,3.8599,3.8592,3.8594,3.8608,3.8618,3.8631,3.8678,3.8675,3.8701,3.871,3.8717,3.8722,3.8744,3.8755,3.8642,3.8642,3.8642,0,0,3.8611,3.8607,3.862,3.8632,3.8632,3.8651,3.8606,3.8629,3.8643,3.8603,3.8633,3.8628,3.8628,3.8668,3.8685,3.8667,3.8753,3.8723,3.8729,3.873,3.875,3.8761,3.877,3.8645,3.8645,3.8644,0,0,3.8686,3.8686,3.8717,3.8718,3.8717,3.8705,3.8713,3.8706,3.8701,3.8731,3.8701,3.8717,3.8743,3.8743,3.8747,3.8822,3.8797,3.8827,3.8872,3.8894,3.8903,3.8911,3.8935,3.8944,3.8832,3.8833,3.8833,0,3.8731,3.8759,3.8736,3.876,3.8766,3.873,3.8761,3.8763,3.8767,3.8771,3.875,3.8781,3.8779,3.8817,3.8835,3.884,3.8847,3.8826,3.8904,3.8911,3.8918,3.8941,3.895,3.8836,3.8836,3.8835,3.8835,0,3.8813,3.8832,3.8858,3.8862,3.887,3.8898,3.8879,3.889,3.8873,3.8863,3.8893,3.889,3.89,3.8908,3.8893,3.8944,3.8932,3.8908,3.887,3.8932,3.8953,3.8962,3.8841,3.884,3.8839,3.8838,0,0,3.8922,3.8912,3.8922,3.8922,3.8919,3.8933,3.8959,3.8969,3.8978,3.8983,3.9002,3.9025,3.9002,3.9006,3.899,3.901,3.9066,3.8983,3.8982,3.8996,3.912,3.9136,3.9147,3.9051,3.9052,3.9054,3.9119,0,3.8993,3.9035,3.9015,3.9059,3.9076,3.9042,3.9064,3.9065,3.9056,3.9069,3.9059,3.9074,3.9045,3.9047,3.9065,3.9055,3.909,3.9051,3.9067,3.9068,3.9065,3.9158,3.9175,3.9237,3.9127,3.9129,3.913,0,3.908,3.9087,3.9133,3.9124,3.9131,3.9151,3.9157,3.917,3.9169,3.9161,3.9166,3.9145,3.9169,3.9133,3.9164,3.9138,3.9144,3.914,3.9142,3.9141,3.9101,3.9156,3.9257,3.9265,3.9143,3.9142,3.9141,0,3.9152,3.9173,3.9202,3.9204,3.9196,3.921,3.9208,3.9205,3.9211,3.9217,3.9221,3.923,3.9234,3.9241,3.9223,3.9199,3.9256,3.922,3.9249,3.9249,3.926,3.926,3.936,3.9269,3.9269,3.9269,3.9269,0,3.9231,3.926,3.9233,3.9251,3.9282,3.9259,3.929,3.9284,3.9282,3.9297,3.927,3.9285,3.9261,3.9274,3.926,3.9287,3.929,3.9283,3.9279,3.9284,3.9285,3.9286,3.928,3.9271,3.9271,3.927,3.927,0,3.9315,3.9299,3.9328,3.9318,3.9316,3.9339,3.933,3.9346,3.9336,3.9355,3.9359,3.9342,3.9356,3.9339,3.9351,3.9342,3.9378,3.9368,3.9377,3.9374,3.9403,3.9399,3.9506,3.9518,3.9421,3.9422,3.9423,0,3.9365,3.9386,3.9378,3.9386,3.9385,3.9399,3.9405,3.9383,3.9391,3.9391,3.9406,3.9417,3.9424,3.9448,3.9436,3.9445,3.9434,3.9471,3.9435,3.9439,3.9432,3.9429,3.943,3.9477,3.9479,3.948,3.948,0,3.9455,3.9446,3.9455,3.9462,3.947,3.9474,3.9477,3.9485,3.9462,3.9472,3.9485,3.9491,3.9503,3.9513,3.9519,3.9516,3.9494,3.9492,3.9499,3.9503,3.9507,3.9502,3.9394,3.9489,3.9488,3.9488,3.9487,3.9487,3.9522,3.9538,3.9534,3.9545,3.9545,3.9547,3.9561,3.9552,3.9562,3.9569,3.9556,3.9572,3.957,3.9575,3.9575,3.9587,3.9571,3.9581,3.9583,3.9586,3.9589,3.9507,3.9588,3.9588,3.9588,3.9587,3.9587,0,3.9608,3.9604,3.9614,3.9618,3.9626,3.9605,3.9606,3.9615,3.9629,3.9628,3.9636,3.965,3.966,3.965,3.9658,3.967,3.966,3.9672,3.967,3.9669,3.9604,3.9596,3.968,3.968,3.968,3.968,3.968,3.968,3.9653,3.9679,3.9669,3.9693,3.9689,3.9703,3.9706,3.9708,3.9707,3.9723,3.9731,3.9725,3.972,3.9727,3.9736,3.9732,3.9735,3.9751,3.9744,3.9683,3.9674,3.9665,3.9657,3.9753,3.9753,3.9808,3.9808,3.9809]}]]